Location: Centerville
(32.8776°N, 96.6203°W)
Time: 05:30:49
(UTC+00:00)

CZ-2C R/B - Pass Details

Date: 17 June 2021
Orbit: 667 x 785 km, 98.2° (Epoch: 29 July)

Event Time Altitude Azimuth Distance (km) Brightness Sun altitude
Rises 09:35:46 0° 21° (NNE) 3,191 6.9 -18.0°
Reaches altitude 10° 09:38:13 10° 28° (NNE) 2,245 6.1 -17.7°
Maximum altitude 09:42:51 40° 98° (E) 1,045 3.5 -17.0°
Drops below altitude 10° 09:47:18 10° 168° (SSE) 2,161 4.5 -16.3°
Enters shadow 09:47:41 - 170° (S) 2,303 4.7 -16.2°
